Location: Palomar Mountain Lodge
(33.3110°N, 116.8495°W)
Time: 20:15:02
(UTC-07:00)

Daily predictions for brighter satellites

Satellite Brightness Start Highest point End
(mag) Time Altitude Azimuth Time Altitude Azimuth Time Altitude Azimuth
Cosmos 2227 Rocket 2.2 19:18:41 10° NNW 19:24:21 72° ENE 19:29:58 10° SSE
Cosmos 1934 Rocket 4.5 19:22:00 10° NNW 19:28:06 66° W 19:34:06 10° S
Ariane Rocket 3.0 19:23:10 10° SSE 19:28:14 77° ENE 19:33:19 10° N
SEDSat Delta rocket 3.2 19:25:45 10° WSW 19:29:41 51° SSE 19:33:49 10° E
Cosmos 1605 Rocket 4.0 19:24:47 10° N 19:31:02 83° E 19:37:20 10° S
HJ-1C 4.5 19:29:35 10° SE 19:32:26 26° ENE 19:35:17 10° NNE
Cosmos 1939 Rocket 3.9 19:31:26 10° SE 19:34:46 26° ENE 19:38:11 10° NNE
Hubble Space Telescope 2.6 19:33:13 10° SSW 19:35:58 17° SSE 19:38:43 10° ESE
Cosmos 1727 Rocket 4.0 19:30:47 10° S 19:37:01 85° E 19:43:21 10° N
Cosmos 1697 Rocket 3.1 19:32:19 10° SSW 19:37:57 72° WNW 19:43:36 10° NNE
FengYun 1-2 T 4.5 19:34:21 10° S 19:39:48 75° WSW 19:45:17 10° NNW
Cosmos 2322 Rocket 3.7 19:37:38 10° SE 19:40:22 14° E 19:43:06 10° ENE
ASTRO E2 4.3 19:40:47 10° SSW 19:43:38 19° SSE 19:45:55 13° ESE
Cosmos 1340 2.6 19:40:59 10° S 19:44:45 89° W 19:48:32 10° N
Cosmos 371 Rocket 3.5 19:40:54 10° NNW 19:45:43 76° WSW 19:50:28 10° S
Cosmos 1805 4.4 19:43:00 10° SE 19:46:00 22° E 19:49:01 10° NE
Cosmos 2360 4.2 19:43:30 10° SSW 19:49:11 83° ESE 19:54:55 10° NNE
Cosmos 1190 Rocket 4.0 19:47:32 10° S 19:52:44 66° ESE 19:57:59 10° NNE
SJ-6B 3.9 19:50:35 14° ESE 19:52:57 24° ENE 19:56:01 10° NNE
Cosmos 1707 2.7 19:50:35 10° N 19:54:27 84° W 19:58:17 10° S
YAOGAN 6 2.7 19:50:46 10° S 19:54:27 79° W 19:58:08 10° NNW
Cosmos 304 Rocket 4.0 19:50:03 10° N 19:54:41 47° ENE 19:59:16 10° SE
NOSS 3-2 (C) 4.3 19:52:39 10° SSE 19:57:09 24° ESE 20:01:55 10° ENE
Cosmos 614 Rocket 3.9 19:54:24 10° S 19:59:26 61° ESE 20:04:34 10° NNE
OAO 3 Rocket 4.3 19:57:50 10° W 20:02:17 37° SSW 20:06:08 13° SE
Cosmos 407 Rocket 3.5 19:58:06 10° SSW 20:03:24 90° ESE 20:08:40 10° NNE
SL-16 R/B 3.0 20:00:06 10° SSE 20:04:50 28° ESE 20:09:34 10° NE
In-Cosmos 22 4.1 19:59:30 10° N 20:04:59 59° E 20:10:17 10° SSE
NOSS 3-2 (A) 3.6 19:59:54 10° S 20:05:10 43° ESE 20:10:53 10° NE
Cosmos 2263 Rocket 3.9 20:03:33 10° NNE 20:06:23 14° NE 20:07:09 14° ENE
Cosmos 2297 Rocket 3.3 20:02:50 10° NW 20:08:11 45° WSW 20:13:30 10° S
Cosmos 1602 Rocket 3.9 20:06:15 10° N 20:10:27 43° E 20:13:34 17° SSE
Cosmos 2082 4.1 20:07:15 10° NNW 20:12:47 64° WSW 20:18:19 10° S
Cosmos 2123 Rocket 4.2 20:07:41 10° SSE 20:13:30 45° E 20:19:20 10° NNE
FALCON 9 R/B 3.9 19:18:36 10° W 20:16:05 62° SSW 20:22:02 21° SE
CZ-2D R/B 4.1 20:14:06 10° S 20:17:49 51° W 20:21:35 10° NNW
ATLAS 3B R/B 3.0 20:11:58 10° S 20:18:25 41° ESE 20:24:41 10° NE
Resurs 01 Rocket 3.1 20:19:54 20° ENE 20:19:54 20° ENE 20:22:32 10° NNE
Delta 2 Rocket 3.5 20:15:41 10° W 20:19:54 61° N 20:21:25 33° ENE
GP-B 4.5 20:16:44 10° SSW 20:20:54 41° W 20:25:06 10° NNW
USA 186 1.8 20:21:24 42° SE 20:22:14 59° ENE 20:25:31 10° N
Cosmos 1140 Rocket 3.4 20:17:45 10° SSW 20:22:58 81° ESE 20:28:14 10° NNE
Cosmos 2016 Rocket 4.0 20:20:52 10° N 20:27:03 57° E 20:32:09 15° SSE
COBE Rocket 3.8 20:24:22 10° NNE 20:29:06 54° E 20:33:42 10° S
Cosmos 2100 Rocket 4.1 20:26:10 10° N 20:32:26 79° W 20:38:45 10° S
CZ-4C R/B 3.4 20:25:59 10° NNW 20:33:06 45° NE 20:36:22 31° ESE
Cosmos 1980 Rocket 3.4 20:27:46 10° SW 20:33:07 43° WNW 20:38:31 10° N
ATLAS 2A CENTAUR R/B 4.3 20:28:39 10° WSW 20:34:16 62° SSE 20:46:47 26° E
USA 267 3.7 20:33:29 32° ESE 20:34:51 35° SE 20:40:40 10° S
Meteor 1-24 Rocket 3.5 20:29:55 10° N 20:35:12 63° E 20:37:46 30° SSE
Cosmos 1954 Rocket 3.9 20:30:22 10° SSW 20:35:41 88° ESE 20:41:01 10° NNE
Cosmos 676 Rocket 4.1 20:31:40 10° SSW 20:36:58 81° WNW 20:42:20 10° NNE
Cosmos 2173 Rocket 4.1 20:31:53 10° N 20:38:01 77° W 20:44:12 10° S
Cosmos 1674 3.2 20:35:02 10° N 20:37:53 42° NE 20:37:53 42° NE
Cosmos 1766 4.0 20:35:54 10° SSW 20:39:39 52° W 20:43:25 10° N
SL-8 R/B 4.2 20:35:57 10° WNW 20:40:39 53° SW 20:42:24 34° SSE
ARGOS 3.7 20:42:26 38° ENE 20:42:26 38° ENE 20:47:20 10° N
Cosmos 2061 Rocket 4.0 20:38:37 10° N 20:44:58 89° W 20:51:22 10° S
Meteor 2-5 Rocket 4.0 20:40:49 10° NNW 20:46:17 65° W 20:51:44 10° S
SPOT 3 Rocket 4.2 20:41:44 10° S 20:46:48 54° W 20:51:55 10° NNW
DELTA 2 R/B (1) 3.8 20:41:49 10° WSW 20:47:22 67° NNW 20:49:35 36° NE
Cosmos 1802 Rocket 4.1 20:45:31 10° N 20:51:37 72° W 20:57:42 10° S
Cosmos 1864 Rocket 4.4 20:47:33 10° N 20:53:56 74° E 20:56:43 36° SSE
Iridium 4 Rocket 4.1 20:50:47 10° SSW 20:55:10 50° W 20:59:59 10° N
Cosmos 1725 Rocket 3.8 20:51:37 10° N 20:57:54 80° E 21:00:23 39° SSE
H-2A R/B 2.4 20:58:46 50° NE 20:58:46 50° NE 21:03:28 10° N
Resurs 1-3 4.3 21:15:42 51° NW 21:15:42 51° NW 21:19:04 10° NNW
SEDSat Delta rocket 4.1 21:11:24 10° W 21:14:07 39° WSW 21:14:07 39° WSW
Hubble Space Telescope 3.0 21:12:55 10° WSW 21:14:11 18° SW 21:14:11 18° SW
Cosmos 2322 Rocket 2.6 21:18:16 10° SSW 21:23:45 61° WNW 21:29:19 10° NNE
NOSS 3-2 (C) 4.3 21:41:56 10° SW 21:47:33 45° NW 21:53:42 10° NNE
SL-16 R/B 3.7 21:43:43 10° SW 21:48:45 33° WNW 21:53:49 10° N
Cosmos 2263 Rocket 3.2 21:45:17 10° NNW 21:48:53 41° NW 21:48:53 41° NW
Resurs 01 Rocket 4.0 21:57:28 21° WNW 21:57:28 21° WNW 21:59:21 10° NW
ATLAS 3B R/B 4.1 22:02:53 10° WSW 22:09:05 34° NW 22:15:09 10° NNE
CZ-4C R/B 4.0 22:14:40 10° NW 22:21:35 39° WSW 22:21:35 39° WSW
CZ-3 Stage 3 4.1 21:43:25 10° WSW 22:31:01 80° SSW 22:31:01 80° SSW
